Weather History for Zabol, Iran

Change the Weather History Date:

Wednesday, February 13, 2013

  Actual Average Record
Temperature  
Mean Temperature 65 °F -  
Max Temperature 77 °F - - ()
Min Temperature 50 °F - - ()
Growing Degree Days 15 (Base 50)    
Moisture  
Dew Point 40 °F    
Average Humidity 43    
Maximum Humidity 71    
Minimum Humidity 13    
Precipitation  
Precipitation 0.00 in - - ()
Sea Level Pressure  
Sea Level Pressure 29.90 in    
Wind  
Wind Speed 6 mph ()    
Max Wind Speed 22 mph    
Max Gust Speed -    
Visibility 5.9 miles    
Events      
T = Trace of Precipitation, MM = Missing Value Source: Averaged Metar Reports

Daily Weather History Graph

Daily Weather History Graph

Search for Another Location

Airport:

Trip Planner

Search our weather history database for the weather conditions in past years. The results will help you decide how hot, cold, wet, or windy it might be!

Date:

Astronomy

Feb. 13, 2013 Rise Set
Actual Time 6:06 AM IRST 5:09 PM IRST
Civil Twilight 5:42 AM IRST 5:34 PM IRST
Nautical Twilight 5:13 AM IRST 6:02 PM IRST
Astronomical Twilight 4:45 AM IRST 6:31 PM IRST
Moon 7:39 AM IRST (2/13) 8:27 PM IRST (2/13)
Length of Visible Light 11h 52m
Length of Day
11h 02m
Waxing Crescent, 11% of the Moon is Illuminated
Feb 13
Waxing Crescent
Feb 18
First Quarter
Feb 25
Full
Mar 5
Last Quarter
Mar 11
New

Hourly Weather History & Observations

Time (IRST) Temp. Dew Point Humidity Pressure Visibility Wind Dir Wind Speed Gust Speed Precip Events Conditions
12:30 AM 62.6 °F 28.4 °F 27% 29.89 in 6.2 mi Calm Calm - N/A   Mostly Cloudy
3:30 AM 55 °F 38 °F 41% 29.84 in 6 mi Calm Calm - -   Partly Cloudy
3:30 AM 55.4 °F 37.4 °F 51% 29.86 in 6.2 mi Calm Calm - N/A   Mostly Cloudy
5:30 AM 55.4 °F 37.4 °F 51% 29.83 in 6.2 mi WSW 4.6 mph - N/A   Mostly Cloudy
6:30 AM 57.2 °F 35.6 °F 44% 29.92 in 6.2 mi NNW 6.9 mph - N/A   Mostly Cloudy
7:30 AM 57.2 °F 39.2 °F 51% 29.95 in 6.2 mi North 6.9 mph - N/A   Scattered Clouds
8:30 AM 60.8 °F 39.2 °F 45% 29.98 in 6.2 mi NNW 11.5 mph - N/A   Mostly Cloudy
9:30 AM 64 °F 43 °F 34% 29.95 in 6 mi NNE 15.7 mph - -   Partly Cloudy
9:30 AM 64.4 °F 42.8 °F 45% 29.98 in 6.2 mi NNE 16.1 mph - N/A   Scattered Clouds
10:30 AM 68.0 °F 44.6 °F 43% 29.95 in 6.2 mi NNE 16.1 mph - N/A   Partly Cloudy
11:30 AM 71.6 °F 41.0 °F 33% 29.95 in 6.2 mi NNE 13.8 mph - N/A   Partly Cloudy
12:30 PM 73.4 °F 42.8 °F 33% 29.89 in 6.2 mi NNE 11.5 mph - N/A   Partly Cloudy
1:30 PM 75.2 °F 41.0 °F 29% 29.86 in - ENE 6.9 mph - N/A   Clear
2:30 PM 77.0 °F 39.2 °F 26% 29.86 in 6.2 mi NNE 4.6 mph - N/A   Partly Cloudy
3:30 PM 77 °F 36 °F 13% 29.81 in 7 mi East 4.5 mph - -   Partly Cloudy
3:30 PM 77.0 °F 35.6 °F 22% 29.83 in 6.2 mi East 4.6 mph - N/A   Partly Cloudy
4:30 PM 75.2 °F 35.6 °F 24% 29.83 in 6.2 mi West 4.6 mph - N/A   Partly Cloudy
5:30 PM 64.4 °F 44.6 °F 49% 29.89 in 1.9 mi NNW 21.9 mph - N/A   Sand
6:30 PM 62.6 °F 44.6 °F 52% 29.89 in 5.0 mi NNE 20.7 mph - N/A   Partly Cloudy
7:30 PM 59.0 °F 44.6 °F 59% 29.89 in 6.2 mi North 11.5 mph - N/A   Partly Cloudy
8:30 PM 59.0 °F 44.6 °F 59% 29.92 in - NE 9.2 mph - N/A   Clear
9:30 PM 57 °F 43 °F 49% 29.91 in 6 mi East 8.9 mph - -  
9:30 PM 57.2 °F 42.8 °F 59% 29.92 in - East 9.2 mph - N/A   Clear
10:30 PM 53.6 °F 42.8 °F 67% 29.95 in - NW 6.9 mph - N/A   Clear
11:30 PM 50.0 °F 41.0 °F 71% 29.95 in - NNW 4.6 mph - N/A   Clear